星链-30343 (STARLINK-30343 )

导读

STARLINK-30343是美国太空探索技术公司(SpaceX)于2023年9月1日发射的星链(Starlink)卫星,属于星链星座组网的组成部分,服务于星链全球高速互联网接入服务的构建。作为第二代星链系列卫星,它依托近地轨道部署,支持宽带通信,可覆盖偏远地区,并逐步拓展至航空、海事及应急通信等场景,助力星链星座实现全球无缝网络覆盖的目标。

Basic Information
目录编号:
57753
目录名称:
STARLINK-30343
国际标识:
2023-131X
轨道中心:
EARTH
卫星名称:
星链-30343
卫星全名:
星链-30343 (STARLINK-30343 )
卫星状态:
在轨 (已飞行1099 天)
发射日期:
2023-09-01 UTC
国别 :
美国 (US)
星等 :
--
Orbit Information
数据来源 国际轨道数据 AOE轨道数据
星历时间 2026-09-04T08:33:02+0800
17小时前
查看轨道信息
2026-08-31T08:00:00+0800
4天前
查看轨道信息
半长轴 6861.198km 6861.195km
偏心率 0.0001471 0.0002326
轨道倾角 43.003° 43.000°
近地点辐角 277.767° 248.137°
升交点赤经 252.690° 275.410°
平近点角 82.301° 282.762°
近地点 482.051km 481.462km
远地点 484.071km 484.654km
周期 94.267分钟 94.267分钟
每日圈数 15.275762 15.275773
Detailed Information
固有亮度:
5
最大亮度:
0.3
卫星平台:
Starlink v2.0 mini
覆盖范围:
全球
运营商:
太空探索技术公司
运营商所在国:
美国
制造商(研发单位):
太空探索技术公司
制造商所在国:
美国
使用方式:
暂无
Satellite Introduction
星链(Starlink)计划是由太空探索技术公司(SpaceX)提出的一个巨型低轨卫星互联网星座项目,计划在2019年至2024年间在太空搭建由约1.2万颗卫星组成的“星链”网络,其中1584颗将部署在地球上空550千米处的近地轨道,并从2020年开始工作。该卫星仍在工作。
2D Orbit Map
3D Orbit Map
Orbit Altitude Analysis Chart
Orbit Inclination Analysis Chart
Orbit Comprehensive Analysis Chart
View Comprehensive Chart
Conjunction Data List
Event ID Objects TCA Miss Dist (km) Collision Risk Probability Collision Risk Index (CRI) Action
CDM_260906-221505-775305-789621
2026-09-06T
22:15:07+0000
0.591 km
远距离
1.03569E-4 高风险 0.75
CDM_260906-234905-775305-789621
2026-09-06T
23:49:16+0000
0.978 km
远距离
2.159782E-5 中风险 0.62
CDM_260906-204005-775305-789621
2026-09-06T
20:40:57+0000
2.096 km
极远距离
1.945593E-6 低风险 0.41